Tracking 18980 objects as of 21-Feb-2018
HD Live streaming from Space Station
objects crossing your sky now

FENGYUN 1C DEB

Track FENGYUN 1C DEB now!
10-day predictions


NORAD ID: 33693
Int'l Code: 1999-025DGE
Perigee: 848.6 km
Apogee: 1,203.9 km
Inclination: 99.4 °
Period: 105.5 minutes
Semi major axis: 7397 km
RCS: 0.0077 m2 (small)
Launch date: May 10, 1999
Source: People's Republic of China (PRC)
Launch site: Taiyaun Space Center, China (TSC)

Note: This is SATELLITE DEBRIS
aabbcc
Your satellite tracking list
Your tracking list is empty




NASA's NSSDC Master Catalog

Two Line Element Set (TLE):
1 33693U 99025DGE 18045.25526890  .00000111  00000-0  15815-3 0  9990
2 33693  99.3786 299.2201 0240171 205.8444 283.9508 13.64578905492474
Source of the keplerian elements: AFSPC